Regional Weather Roundup
Issued by NWS

Home | Current Version | Previous Version | Graphics & Text | Print | Product List | Glossary On
Versions: 1 2 3 4 5 6 7 8 9 10 11 12 13 14 15 16 17 18 19 20 21 22 23 24 25 26 27 28 29 30 31 32 33 34 35 36 37 38 39 40 41 42 43 44 45 46 47 48 49 50
000
ASUS43 KFSD 290310
RWRSD

WEATHER ROUNDUP FOR SOUTH DAKOTA
NATIONAL WEATHER SERVICE SIOUX FALLS SD
1000 PM CDT MON JUL 28 2014

NOTE: "FAIR" INDICATES FEW OR NO CLOUDS BELOW 12,000 FEET WITH NO
SIGNIFICANT WEATHER AND/OR OBSTRUCTIONS TO VISIBILITY.


SDZ001>005-009-010-012>017-290400-
NORTHWEST AND NORTH CENTRAL SOUTH DAKOTA

CITY           SKY/WX    TMP DP  RH WIND       PRES   REMARKS
BUFFALO          N/A     67  54  63 E10       30.19R
FAITH            N/A     65  53  65 E9        30.25R
MOBRIDGE       CLEAR     64  50  60 NE8       30.22R
$$

SDZ012>016-024>037-041>051-057-063-072>074-290400-
SOUTHWEST AND SOUTH CENTRAL SOUTH DAKOTA

CITY           SKY/WX    TMP DP  RH WIND       PRES   REMARKS
RAPID CTY ARPT CLEAR     68  52  56 E14       30.24R
PIERRE         CLEAR     64  54  69 NE8       30.21S
CUSTER         CLEAR     63  50  62 E8        30.36R
ELLSWORTH AFB  CLEAR     71  52  52 E12       30.25R
PHILIP         CLEAR     68  50  52 E10       30.22R
PINE RIDGE     CLEAR     69  56  62 E10       30.23R
WINNER         FAIR      66  50  56 E8        30.22S
$$

SDZ004>011-016>023-039-040-290400-
NORTHEAST SOUTH DAKOTA

CITY           SKY/WX    TMP DP  RH WIND       PRES   REMARKS
ABERDEEN       CLEAR     58  53  84 CALM      30.22S
WATERTOWN      CLEAR     61  52  72 CALM      30.22S
SISSETON         N/A     59  55  87 NW5       30.20S
$$

SDZ017-020-022-023-036>040-048>070-290400-
SOUTHEAST SOUTH DAKOTA

CITY           SKY/WX    TMP DP  RH WIND       PRES   REMARKS
SIOUX FALLS    CLEAR     61  54  77 N5        30.22R
HURON          CLEAR     62  52  69 E3        30.22R
CHAMBERLAIN    CLEAR     64  53  66 E5        30.23R
MITCHELL       CLEAR     65  54  67 CALM      30.22R
YANKTON        CLEAR     63  54  72 NW5       30.21R
$$

ABBREVIATIONS USED IN REMARKS
   TC - TEMPERATURE IN CELSIUS
  WCI - WIND CHILL INDEX
   HX - HEAT INDEX
  VSB - VISIBILITY



USA.gov is the U.S. government's official web portal to all federal, state and local government web resources and services.